Retour au catalogue

COSMOS 529

ActifMilitaireLEO
NORAD 6264·PAYLOAD·🇷🇺 Russia

Lancé Nov 1, 1972 depuis Plesetsk Cosmodrome

Loading…

Prochains Passages (prochaines 24 heures)

TLE

FraisSource: Space-Track

Époque: Sep 14, 2026, 09:08 UTC

1 06264U 72087B   26257.38118138 -.00000031  00000-0 -88365-4 0  9997
2 06264  74.0319 237.1470 0042169 359.9016 153.8161 12.57216019472207

Suivez COSMOS 529 en temps réel avec AllMySat

Download on the App Store